Time,TemperatureF,DewpointF,PressureIn,WindDirection,WindDirectionDegrees,WindSpeedMPH,WindSpeedGustMPH,Humidity,HourlyPrecipIn,Conditions,Clouds,dailyrainin,SoftwareType,DateUTC
2013-09-04 00:00:00,71.9,58.2,30.06,NE,46,3.6,3.6,62,0.00,,---,0.00,VWS V14.00,2013-09-04 04:00:00,
2013-09-04 00:02:00,71.9,58.2,30.06,NE,37,3.6,4.0,62,0.00,,---,0.00,VWS V14.00,2013-09-04 04:02:00,
2013-09-04 00:03:00,71.9,58.2,30.06,NE,56,3.1,4.0,62,0.00,,---,0.00,VWS V14.00,2013-09-04 04:03:00,
2013-09-04 00:04:00,71.9,58.2,30.06,NE,39,3.6,4.0,62,0.00,,---,0.00,VWS V14.00,2013-09-04 04:04:00,
2013-09-04 00:09:00,71.9,58.2,30.06,NE,43,4.0,4.9,62,0.00,,---,0.00,VWS V14.00,2013-09-04 04:09:00,
2013-09-04 00:12:00,71.7,58.0,30.06,NE,34,4.5,4.5,62,0.00,,---,0.00,VWS V14.00,2013-09-04 04:12:00,
2013-09-04 00:17:00,71.3,58.1,30.06,NE,48,3.6,5.4,63,0.00,,---,0.00,VWS V14.00,2013-09-04 04:17:00,
2013-09-04 00:22:00,71.0,57.8,30.06,NE,41,4.5,5.8,63,0.00,,---,0.00,VWS V14.00,2013-09-04 04:22:00,
2013-09-04 00:28:00,70.8,58.0,30.06,NNE,26,2.7,5.8,64,0.00,,---,0.00,VWS V14.00,2013-09-04 04:28:00,
2013-09-04 00:33:00,70.4,57.7,30.06,NE,41,2.7,3.6,64,0.00,,---,0.00,VWS V14.00,2013-09-04 04:33:00,
2013-09-04 00:38:00,70.1,57.8,30.06,NE,50,2.2,3.6,65,0.00,,---,0.00,VWS V14.00,2013-09-04 04:38:00,
2013-09-04 00:43:00,69.9,58.0,30.06,NE,49,2.7,3.1,66,0.00,,---,0.00,VWS V14.00,2013-09-04 04:43:00,
2013-09-04 00:48:00,69.7,57.8,30.06,NE,43,3.6,4.0,66,0.00,,---,0.00,VWS V14.00,2013-09-04 04:48:00,
2013-09-04 00:53:00,69.7,57.8,30.06,NE,41,3.1,4.9,66,0.00,,---,0.00,VWS V14.00,2013-09-04 04:53:00,
2013-09-04 00:58:00,69.9,58.0,30.06,NE,43,3.6,4.9,66,0.00,,---,0.00,VWS V14.00,2013-09-04 04:58:00,
2013-09-04 01:03:00,69.9,58.0,30.06,NNE,33,4.0,4.0,66,0.00,,---,0.00,VWS V14.00,2013-09-04 05:03:00,
2013-09-04 01:08:00,69.7,57.8,30.06,NE,46,2.7,4.0,66,0.00,,---,0.00,VWS V14.00,2013-09-04 05:08:00,
2013-09-04 01:13:00,69.5,57.7,30.06,ENE,67,2.7,3.6,66,0.00,,---,0.00,VWS V14.00,2013-09-04 05:13:00,
2013-09-04 01:18:00,69.3,57.5,30.06,NE,46,2.2,3.6,66,0.00,,---,0.00,VWS V14.00,2013-09-04 05:18:00,
2013-09-04 01:23:00,69.3,57.5,30.06,NNE,33,2.2,2.7,66,0.00,,---,0.00,VWS V14.00,2013-09-04 05:23:00,
2013-09-04 01:28:00,69.0,57.2,30.06,NNE,29,2.2,2.7,66,0.00,,---,0.00,VWS V14.00,2013-09-04 05:28:00,
2013-09-04 01:34:00,68.6,57.7,30.06,NNE,29,2.2,2.7,68,0.00,,---,0.00,VWS V14.00,2013-09-04 05:34:00,
2013-09-04 01:39:00,68.1,57.9,30.06,NNE,29,0.0,2.7,70,0.00,,---,0.00,VWS V14.00,2013-09-04 05:39:00,
2013-09-04 01:44:00,67.5,58.6,30.06,NNE,29,0.0,0.0,73,0.00,,---,0.00,VWS V14.00,2013-09-04 05:44:00,
2013-09-04 01:49:00,67.0,58.8,30.06,NNE,29,0.0,0.0,75,0.00,,---,0.00,VWS V14.00,2013-09-04 05:49:00,
2013-09-04 01:54:00,66.6,59.2,30.06,NNE,29,0.0,0.0,77,0.00,,---,0.00,VWS V14.00,2013-09-04 05:54:00,
2013-09-04 01:59:00,66.3,59.6,30.06,NNE,29,0.0,0.0,79,0.00,,---,0.00,VWS V14.00,2013-09-04 05:59:00,
2013-09-04 02:04:00,65.9,60.3,30.06,NNE,29,0.0,0.0,82,0.00,,---,0.00,VWS V14.00,2013-09-04 06:04:00,
2013-09-04 02:09:00,65.7,60.8,30.06,NNE,29,0.0,0.0,84,0.00,,---,0.00,VWS V14.00,2013-09-04 06:09:00,
2013-09-04 02:14:00,65.6,60.9,30.06,NNE,29,0.0,0.0,85,0.00,,---,0.00,VWS V14.00,2013-09-04 06:14:00,
2013-09-04 02:19:00,65.4,61.1,30.06,NNE,29,0.0,0.0,86,0.00,,---,0.00,VWS V14.00,2013-09-04 06:19:00,
2013-09-04 02:24:00,65.2,60.9,30.06,NNE,29,0.0,0.0,86,0.00,,---,0.00,VWS V14.00,2013-09-04 06:24:00,
2013-09-04 02:29:00,65.2,60.9,30.06,NNE,29,0.0,0.0,86,0.00,,---,0.00,VWS V14.00,2013-09-04 06:29:00,
2013-09-04 02:34:00,65.2,61.2,30.06,North,8,0.0,0.0,87,0.00,,---,0.00,VWS V14.00,2013-09-04 06:34:00,
2013-09-04 02:39:00,65.0,61.7,30.06,NNE,23,0.0,0.0,89,0.00,,---,0.00,VWS V14.00,2013-09-04 06:39:00,
2013-09-04 02:44:00,64.8,61.5,30.06,NNE,23,0.0,0.0,89,0.00,,---,0.00,VWS V14.00,2013-09-04 06:44:00,
2013-09-04 02:50:00,64.8,61.8,30.06,North,10,0.0,0.0,90,0.00,,---,0.00,VWS V14.00,2013-09-04 06:50:00,
2013-09-04 02:55:00,64.7,61.3,30.06,NNE,19,3.1,3.6,89,0.00,,---,0.00,VWS V14.00,2013-09-04 06:55:00,
2013-09-04 03:00:00,64.7,61.7,30.06,North,2,0.0,0.0,90,0.00,,---,0.00,VWS V14.00,2013-09-04 07:00:00,
2013-09-04 03:05:00,64.5,61.5,30.06,NNW,333,0.0,0.0,90,0.00,,---,0.00,VWS V14.00,2013-09-04 07:05:00,
2013-09-04 03:10:00,64.3,61.6,30.06,NNW,332,0.0,0.0,91,0.00,,---,0.00,VWS V14.00,2013-09-04 07:10:00,
2013-09-04 03:15:00,64.1,61.4,30.06,North,349,0.0,0.0,91,0.00,,---,0.00,VWS V14.00,2013-09-04 07:15:00,
2013-09-04 03:20:00,63.9,61.3,30.06,NNW,333,3.1,3.1,91,0.00,,---,0.00,VWS V14.00,2013-09-04 07:20:00,
2013-09-04 03:25:00,63.9,61.6,30.06,NNW,345,0.0,4.0,92,0.00,,---,0.00,VWS V14.00,2013-09-04 07:25:00,
2013-09-04 03:30:00,63.8,61.4,30.06,NW,326,2.7,3.1,92,0.00,,---,0.00,VWS V14.00,2013-09-04 07:30:00,
2013-09-04 03:35:00,63.8,61.4,30.06,NW,320,0.0,3.1,92,0.00,,---,0.00,VWS V14.00,2013-09-04 07:35:00,
2013-09-04 03:40:00,63.8,61.4,30.06,NW,313,0.0,0.0,92,0.00,,---,0.00,VWS V14.00,2013-09-04 07:40:00,
2013-09-04 03:45:00,63.8,61.4,30.06,NNW,343,0.0,0.0,92,0.00,,---,0.00,VWS V14.00,2013-09-04 07:45:00,
2013-09-04 03:50:00,63.8,61.4,30.06,North,357,0.0,0.0,92,0.00,,---,0.00,VWS V14.00,2013-09-04 07:50:00,
2013-09-04 03:55:00,63.8,61.4,30.06,North,0,2.7,4.9,92,0.00,,---,0.00,VWS V14.00,2013-09-04 07:55:00,
2013-09-04 04:00:00,63.6,61.2,30.06,NNW,342,2.2,3.1,92,0.00,,---,0.00,VWS V14.00,2013-09-04 08:00:00,
2013-09-04 04:05:00,63.4,61.3,30.06,NNW,331,0.0,4.0,93,0.00,,---,0.00,VWS V14.00,2013-09-04 08:05:00,
2013-09-04 04:10:00,63.4,61.3,30.06,NNE,32,2.7,3.1,93,0.00,,---,0.00,VWS V14.00,2013-09-04 08:10:00,
2013-09-04 04:16:00,63.4,61.3,30.06,NNE,24,2.7,4.0,93,0.00,,---,0.00,VWS V14.00,2013-09-04 08:16:00,
2013-09-04 04:21:00,63.2,61.5,30.06,NNW,328,4.5,4.5,94,0.00,,---,0.00,VWS V14.00,2013-09-04 08:21:00,
2013-09-04 04:26:00,63.2,61.8,30.06,North,3,3.1,6.3,95,0.00,,---,0.00,VWS V14.00,2013-09-04 08:26:00,
2013-09-04 04:31:00,63.2,61.8,30.06,North,357,3.6,3.6,95,0.00,,---,0.00,VWS V14.00,2013-09-04 08:31:00,
2013-09-04 04:36:00,63.0,61.6,30.06,North,2,3.1,4.0,95,0.00,,---,0.00,VWS V14.00,2013-09-04 08:36:00,
2013-09-04 04:41:00,63.0,61.6,30.06,NNE,17,2.2,3.1,95,0.00,,---,0.00,VWS V14.00,2013-09-04 08:41:00,
2013-09-04 04:46:00,63.0,61.9,30.06,NNW,346,2.2,3.6,96,0.00,,---,0.00,VWS V14.00,2013-09-04 08:46:00,
2013-09-04 04:51:00,63.0,61.9,30.06,NNW,333,2.7,4.0,96,0.00,,---,0.00,VWS V14.00,2013-09-04 08:51:00,
2013-09-04 04:56:00,63.0,61.9,30.06,NW,325,3.1,5.4,96,0.00,,---,0.00,VWS V14.00,2013-09-04 08:56:00,
2013-09-04 05:01:00,62.9,61.7,30.06,NNW,340,0.0,3.1,96,0.00,,---,0.00,VWS V14.00,2013-09-04 09:01:00,
2013-09-04 05:06:00,62.9,61.7,30.06,North,353,0.0,3.1,96,0.00,,---,0.00,VWS V14.00,2013-09-04 09:06:00,
2013-09-04 05:11:00,62.7,61.5,30.06,NNE,26,4.0,4.0,96,0.00,,---,0.00,VWS V14.00,2013-09-04 09:11:00,
2013-09-04 05:16:00,62.7,61.8,30.06,NNW,334,2.2,4.0,97,0.00,,---,0.00,VWS V14.00,2013-09-04 09:16:00,
2013-09-04 05:22:00,62.7,61.8,30.06,North,3,2.2,3.1,97,0.00,,---,0.00,VWS V14.00,2013-09-04 09:22:00,
2013-09-04 05:27:00,62.5,61.3,30.06,North,0,0.0,3.1,96,0.00,,---,0.00,VWS V14.00,2013-09-04 09:27:00,
2013-09-04 05:32:00,62.3,61.2,30.06,North,357,2.7,3.1,96,0.00,,---,0.00,VWS V14.00,2013-09-04 09:32:00,
2013-09-04 05:37:00,62.3,61.2,30.06,North,350,2.7,4.9,96,0.00,,---,0.00,VWS V14.00,2013-09-04 09:37:00,
2013-09-04 05:42:00,62.1,61.3,30.06,NW,315,4.0,4.9,97,0.00,,---,0.00,VWS V14.00,2013-09-04 09:42:00,
2013-09-04 05:47:00,62.1,61.3,30.06,NE,36,4.0,4.9,97,0.00,,---,0.00,VWS V14.00,2013-09-04 09:47:00,
2013-09-04 05:52:00,62.3,61.5,30.06,NE,34,4.0,5.4,97,0.00,,---,0.00,VWS V14.00,2013-09-04 09:52:00,
2013-09-04 05:57:00,62.3,61.5,30.06,North,353,3.1,5.4,97,0.00,,---,0.00,VWS V14.00,2013-09-04 09:57:00,
2013-09-04 06:02:00,62.3,61.5,30.06,North,0,4.0,5.8,97,0.00,,---,0.00,VWS V14.00,2013-09-04 10:02:00,
2013-09-04 06:07:00,62.1,61.3,30.06,NNW,340,3.6,5.8,97,0.00,,---,0.00,VWS V14.00,2013-09-04 10:07:00,
2013-09-04 06:12:00,62.1,61.0,30.06,North,0,3.1,6.3,96,0.00,,---,0.00,VWS V14.00,2013-09-04 10:12:00,
2013-09-04 06:17:00,62.1,61.0,30.06,NNW,346,5.4,6.3,96,0.00,,---,0.00,VWS V14.00,2013-09-04 10:17:00,
2013-09-04 06:23:00,62.1,61.0,30.06,NNW,341,4.0,5.4,96,0.00,,---,0.00,VWS V14.00,2013-09-04 10:23:00,
2013-09-04 06:28:00,62.1,61.0,30.06,NNW,329,3.6,5.4,96,0.00,,---,0.00,VWS V14.00,2013-09-04 10:28:00,
2013-09-04 06:33:00,62.0,60.8,30.06,North,353,3.1,3.6,96,0.00,,---,0.00,VWS V14.00,2013-09-04 10:33:00,
2013-09-04 06:38:00,61.8,60.6,30.06,NNE,17,3.6,4.0,96,0.00,,---,0.00,VWS V14.00,2013-09-04 10:38:00,
2013-09-04 06:43:00,61.8,60.6,30.09,NNE,18,3.1,4.0,96,0.00,,---,0.00,VWS V14.00,2013-09-04 10:43:00,
2013-09-04 06:48:00,61.6,60.5,30.09,North,4,3.6,4.9,96,0.00,,---,0.00,VWS V14.00,2013-09-04 10:48:00,
2013-09-04 06:53:00,61.4,60.6,30.09,North,8,3.1,4.9,97,0.00,,---,0.00,VWS V14.00,2013-09-04 10:53:00,
2013-09-04 06:58:00,61.2,60.4,30.09,NNW,348,3.6,4.9,97,0.00,,---,0.00,VWS V14.00,2013-09-04 10:58:00,
2013-09-04 07:03:00,61.2,60.4,30.09,NNE,17,3.1,3.6,97,0.00,,---,0.00,VWS V14.00,2013-09-04 11:03:00,
2013-09-04 07:08:00,61.1,60.2,30.09,North,353,2.2,4.0,97,0.00,,---,0.00,VWS V14.00,2013-09-04 11:08:00,
2013-09-04 07:13:00,61.1,60.2,30.09,North,0,2.7,3.6,97,0.00,,---,0.00,VWS V14.00,2013-09-04 11:13:00,
2013-09-04 07:18:00,60.9,60.0,30.09,North,353,2.7,3.6,97,0.00,,---,0.00,VWS V14.00,2013-09-04 11:18:00,
2013-09-04 07:23:00,60.7,60.1,30.09,North,350,0.0,3.6,98,0.00,,---,0.00,VWS V14.00,2013-09-04 11:23:00,
2013-09-04 07:28:00,60.7,60.1,30.09,North,357,3.6,4.0,98,0.00,,---,0.00,VWS V14.00,2013-09-04 11:28:00,
2013-09-04 07:33:00,60.7,60.1,30.09,North,353,2.7,3.6,98,0.00,,---,0.00,VWS V14.00,2013-09-04 11:33:00,
2013-09-04 07:38:00,60.7,60.4,30.09,North,0,3.6,3.6,99,0.00,,---,0.00,VWS V14.00,2013-09-04 11:38:00,
2013-09-04 07:44:00,60.7,60.4,30.09,North,353,3.1,5.4,99,0.00,,---,0.00,VWS V14.00,2013-09-04 11:44:00,
2013-09-04 07:49:00,60.9,60.6,30.09,North,357,2.2,5.4,99,0.00,,---,0.00,VWS V14.00,2013-09-04 11:49:00,
2013-09-04 07:54:00,60.9,60.6,30.09,North,357,3.1,4.0,99,0.00,,---,0.00,VWS V14.00,2013-09-04 11:54:00,
2013-09-04 07:59:00,60.7,60.4,30.11,North,353,2.7,4.0,99,0.00,,---,0.00,VWS V14.00,2013-09-04 11:59:00,
2013-09-04 08:04:00,60.7,60.4,30.11,NNW,344,4.9,4.9,99,0.00,,---,0.00,VWS V14.00,2013-09-04 12:04:00,
2013-09-04 08:09:00,60.9,60.9,30.11,NNW,345,3.1,4.9,100,0.00,,---,0.00,VWS V14.00,2013-09-04 12:09:00,
2013-09-04 08:14:00,60.9,60.9,30.11,North,357,4.0,4.0,100,0.00,,---,0.00,VWS V14.00,2013-09-04 12:14:00,
2013-09-04 08:19:00,61.1,61.1,30.11,North,7,2.7,4.0,100,0.00,,---,0.00,VWS V14.00,2013-09-04 12:19:00,
2013-09-04 08:24:00,61.4,61.4,30.11,North,0,2.7,4.9,100,0.00,,---,0.00,VWS V14.00,2013-09-04 12:24:00,
2013-09-04 08:29:00,61.8,61.8,30.11,North,353,2.7,4.9,100,0.00,,---,0.00,VWS V14.00,2013-09-04 12:29:00,
2013-09-04 08:34:00,62.1,62.1,30.11,NW,324,2.2,3.6,100,0.00,,---,0.00,VWS V14.00,2013-09-04 12:34:00,
2013-09-04 08:39:00,62.7,62.4,30.11,North,357,2.7,4.0,99,0.00,,---,0.00,VWS V14.00,2013-09-04 12:39:00,
2013-09-04 08:44:00,63.2,62.9,30.11,North,349,2.2,3.1,99,0.00,,---,0.00,VWS V14.00,2013-09-04 12:44:00,
2013-09-04 08:49:00,64.3,63.4,30.11,North,357,2.2,3.6,97,0.00,,---,0.00,VWS V14.00,2013-09-04 12:49:00,
2013-09-04 08:54:00,65.0,63.3,30.11,NNW,330,3.6,4.0,94,0.00,,---,0.00,VWS V14.00,2013-09-04 12:54:00,
2013-09-04 08:59:00,65.7,62.7,30.11,North,9,2.7,4.0,90,0.00,,---,0.00,VWS V14.00,2013-09-04 12:59:00,
2013-09-04 09:04:00,66.5,62.8,30.11,NW,320,3.6,4.0,88,0.00,,---,0.00,VWS V14.00,2013-09-04 13:04:00,
2013-09-04 09:10:00,66.8,62.2,30.11,NNW,339,3.1,4.0,85,0.00,,---,0.00,VWS V14.00,2013-09-04 13:10:00,
2013-09-04 09:15:00,67.2,60.5,30.11,NW,309,2.7,4.9,79,0.00,,---,0.00,VWS V14.00,2013-09-04 13:15:00,
2013-09-04 09:20:00,67.5,60.5,30.11,NE,34,2.7,4.9,78,0.00,,---,0.00,VWS V14.00,2013-09-04 13:20:00,
2013-09-04 09:25:00,68.1,60.2,30.11,NNW,330,2.7,4.9,76,0.00,,---,0.00,VWS V14.00,2013-09-04 13:25:00,
2013-09-04 09:30:00,68.3,59.3,30.11,WNW,297,3.6,5.4,73,0.00,,---,0.00,VWS V14.00,2013-09-04 13:30:00,
2013-09-04 09:35:00,68.4,58.7,30.11,NW,306,3.1,5.8,71,0.00,,---,0.00,VWS V14.00,2013-09-04 13:35:00,
2013-09-04 09:40:00,68.6,58.5,30.11,North,353,2.7,4.0,70,0.00,,---,0.00,VWS V14.00,2013-09-04 13:40:00,
2013-09-04 09:45:00,68.8,58.2,30.14,NW,322,3.6,5.4,69,0.00,,---,0.00,VWS V14.00,2013-09-04 13:45:00,
2013-09-04 09:50:00,69.0,58.4,30.14,NW,305,0.0,0.0,69,0.00,,---,0.00,VWS V14.00,2013-09-04 13:50:00,
2013-09-04 09:55:00,69.3,58.7,30.14,NW,311,4.0,5.8,69,0.00,,---,0.00,VWS V14.00,2013-09-04 13:55:00,
2013-09-04 10:00:00,69.7,58.7,30.14,NW,318,2.7,3.6,68,0.00,,---,0.00,VWS V14.00,2013-09-04 14:00:00,
2013-09-04 10:05:00,70.4,59.4,30.14,NNW,343,0.0,4.9,68,0.00,,---,0.00,VWS V14.00,2013-09-04 14:05:00,
2013-09-04 10:10:00,71.0,59.5,30.14,North,2,2.7,4.0,67,0.00,,---,0.00,VWS V14.00,2013-09-04 14:10:00,
2013-09-04 10:15:00,71.7,59.7,30.14,NNE,18,2.7,5.4,66,0.00,,---,0.00,VWS V14.00,2013-09-04 14:15:00,
2013-09-04 10:20:00,72.2,60.2,30.14,NNE,12,3.1,3.6,66,0.00,,---,0.00,VWS V14.00,2013-09-04 14:20:00,
2013-09-04 10:26:00,72.8,59.9,30.14,NNE,27,2.7,5.4,64,0.00,,---,0.00,VWS V14.00,2013-09-04 14:26:00,
2013-09-04 10:31:00,73.1,60.2,30.14,NW,313,0.0,0.0,64,0.00,,---,0.00,VWS V14.00,2013-09-04 14:31:00,
2013-09-04 10:36:00,73.3,60.4,30.14,WNW,302,0.0,4.0,64,0.00,,---,0.00,VWS V14.00,2013-09-04 14:36:00,
2013-09-04 10:41:00,74.0,61.1,30.14,NE,35,4.0,4.0,64,0.00,,---,0.00,VWS V14.00,2013-09-04 14:41:00,
2013-09-04 10:46:00,74.6,60.7,30.14,ENE,72,2.7,4.9,62,0.00,,---,0.00,VWS V14.00,2013-09-04 14:46:00,
2013-09-04 10:51:00,75.3,60.9,30.14,NE,34,2.7,3.6,61,0.00,,---,0.00,VWS V14.00,2013-09-04 14:51:00,
2013-09-04 10:56:00,75.8,61.0,30.14,NNE,12,3.1,5.4,60,0.00,,---,0.00,VWS V14.00,2013-09-04 14:56:00,
2013-09-04 11:01:00,76.4,60.0,30.14,North,357,3.6,5.8,57,0.00,,---,0.00,VWS V14.00,2013-09-04 15:01:00,
2013-09-04 11:06:00,76.9,59.5,30.14,North,9,5.4,7.2,55,0.00,,---,0.00,VWS V14.00,2013-09-04 15:06:00,
2013-09-04 11:12:00,77.4,58.5,30.14,North,357,4.0,5.8,52,0.00,,---,0.00,VWS V14.00,2013-09-04 15:12:00,
2013-09-04 11:17:00,78.0,59.5,30.14,ENE,57,2.7,5.8,53,0.00,,---,0.00,VWS V14.00,2013-09-04 15:17:00,
2013-09-04 11:22:00,78.5,59.5,30.14,NE,39,3.6,5.8,52,0.00,,---,0.00,VWS V14.00,2013-09-04 15:22:00,
2013-09-04 11:27:00,78.9,59.8,30.14,ESE,104,2.7,5.8,52,0.00,,---,0.00,VWS V14.00,2013-09-04 15:27:00,
2013-09-04 11:32:00,79.2,59.6,30.14,East,90,3.6,8.1,51,0.00,,---,0.00,VWS V14.00,2013-09-04 15:32:00,
2013-09-04 11:37:00,79.4,59.7,30.14,NE,42,3.6,8.1,51,0.00,,---,0.00,VWS V14.00,2013-09-04 15:37:00,
2013-09-04 11:42:00,79.6,59.3,30.14,West,272,0.0,2.7,50,0.00,,---,0.00,VWS V14.00,2013-09-04 15:42:00,
2013-09-04 11:47:00,80.0,59.7,30.14,NNE,31,4.0,7.6,50,0.00,,---,0.00,VWS V14.00,2013-09-04 15:47:00,
2013-09-04 11:52:00,80.3,60.0,30.14,NE,45,5.4,6.3,50,0.00,,---,0.00,VWS V14.00,2013-09-04 15:52:00,
2013-09-04 11:57:00,80.5,59.6,30.14,North,3,7.6,8.3,49,0.00,,---,0.00,VWS V14.00,2013-09-04 15:57:00,
2013-09-04 12:02:00,80.7,58.6,30.14,North,3,3.6,5.4,47,0.00,,---,0.00,VWS V14.00,2013-09-04 16:02:00,
2013-09-04 12:07:00,80.9,58.8,30.14,NE,44,4.9,5.8,47,0.00,,---,0.00,VWS V14.00,2013-09-04 16:07:00,
2013-09-04 12:12:00,81.4,57.4,30.14,SE,126,2.7,5.8,44,0.00,,---,0.00,VWS V14.00,2013-09-04 16:12:00,
2013-09-04 12:17:00,81.6,58.2,30.14,NNE,14,6.3,10.1,45,0.00,,---,0.00,VWS V14.00,2013-09-04 16:17:00,
2013-09-04 12:22:00,81.8,57.7,30.14,ESE,121,0.0,6.3,44,0.00,,---,0.00,VWS V14.00,2013-09-04 16:22:00,
2013-09-04 12:27:00,82.3,58.2,30.14,East,89,2.7,6.3,44,0.00,,---,0.00,VWS V14.00,2013-09-04 16:27:00,
2013-09-04 12:32:00,82.7,57.9,30.14,ENE,61,2.2,5.8,43,0.00,,---,0.00,VWS V14.00,2013-09-04 16:32:00,
2013-09-04 12:38:00,82.8,57.4,30.14,ENE,75,4.5,9.2,42,0.00,,---,0.00,VWS V14.00,2013-09-04 16:38:00,
2013-09-04 12:43:00,82.8,57.4,30.14,ESE,108,5.8,8.1,42,0.00,,---,0.00,VWS V14.00,2013-09-04 16:43:00,
2013-09-04 12:48:00,82.8,57.4,30.14,NE,54,3.1,10.1,42,0.00,,---,0.00,VWS V14.00,2013-09-04 16:48:00,
2013-09-04 12:53:00,83.0,57.6,30.14,East,99,2.2,6.3,42,0.00,,---,0.00,VWS V14.00,2013-09-04 16:53:00,
2013-09-04 12:58:00,83.6,57.4,30.14,NE,37,5.4,10.5,41,0.00,,---,0.00,VWS V14.00,2013-09-04 16:58:00,
2013-09-04 13:03:00,83.9,57.7,30.14,NE,51,2.7,6.3,41,0.00,,---,0.00,VWS V14.00,2013-09-04 17:03:00,
2013-09-04 13:08:00,84.3,57.4,30.14,NNE,14,5.4,8.3,40,0.00,,---,0.00,VWS V14.00,2013-09-04 17:08:00,
2013-09-04 13:13:00,84.5,57.5,30.14,NNE,18,8.7,10.1,40,0.00,,---,0.00,VWS V14.00,2013-09-04 17:13:00,
2013-09-04 13:18:00,84.5,57.5,30.14,NNE,25,6.3,10.1,40,0.00,,---,0.00,VWS V14.00,2013-09-04 17:18:00,
2013-09-04 13:24:00,84.8,57.8,30.14,East,83,6.3,10.1,40,0.00,,---,0.00,VWS V14.00,2013-09-04 17:24:00,
2013-09-04 13:29:00,85.0,57.3,30.14,NNE,31,8.7,11.9,39,0.00,,---,0.00,VWS V14.00,2013-09-04 17:29:00,
2013-09-04 13:34:00,85.0,57.3,30.14,NE,35,5.8,6.3,39,0.00,,---,0.00,VWS V14.00,2013-09-04 17:34:00,
2013-09-04 13:39:00,85.2,57.5,30.14,NNE,27,8.3,8.7,39,0.00,,---,0.00,VWS V14.00,2013-09-04 17:39:00,
2013-09-04 13:44:00,85.2,57.5,30.14,NE,37,4.9,8.3,39,0.00,,---,0.00,VWS V14.00,2013-09-04 17:44:00,
2013-09-04 13:49:00,85.2,57.5,30.14,East,87,8.1,11.4,39,0.00,,---,0.00,VWS V14.00,2013-09-04 17:49:00,
2013-09-04 13:54:00,85.4,57.6,30.14,SSE,153,3.6,8.3,39,0.00,,---,0.00,VWS V14.00,2013-09-04 17:54:00,
2013-09-04 13:59:00,85.5,57.8,30.14,ENE,61,3.1,8.3,39,0.00,,---,0.00,VWS V14.00,2013-09-04 17:59:00,
2013-09-04 14:04:00,85.7,57.9,30.14,NNE,28,3.1,8.1,39,0.00,,---,0.00,VWS V14.00,2013-09-04 18:04:00,
2013-09-04 14:09:00,85.7,57.9,30.14,NE,55,8.7,11.0,39,0.00,,---,0.00,VWS V14.00,2013-09-04 18:09:00,
2013-09-04 14:14:00,85.9,58.1,30.14,NE,52,5.8,8.3,39,0.00,,---,0.00,VWS V14.00,2013-09-04 18:14:00,
2013-09-04 14:19:00,86.3,58.4,30.14,East,81,3.1,8.3,39,0.00,,---,0.00,VWS V14.00,2013-09-04 18:19:00,
2013-09-04 14:24:00,86.6,58.7,30.14,ENE,62,6.3,8.1,39,0.00,,---,0.00,VWS V14.00,2013-09-04 18:24:00,
2013-09-04 14:29:00,86.6,58.7,30.14,ENE,72,6.3,8.7,39,0.00,,---,0.00,VWS V14.00,2013-09-04 18:29:00,
2013-09-04 14:34:00,86.4,58.6,30.14,ENE,70,4.9,11.0,39,0.00,,---,0.00,VWS V14.00,2013-09-04 18:34:00,
2013-09-04 14:39:00,86.6,58.7,30.14,ENE,73,2.2,11.0,39,0.00,,---,0.00,VWS V14.00,2013-09-04 18:39:00,
2013-09-04 14:44:00,86.8,58.2,30.14,NE,55,7.6,7.6,38,0.00,,---,0.00,VWS V14.00,2013-09-04 18:44:00,
2013-09-04 14:49:00,86.4,58.6,30.14,ENE,68,2.2,8.3,39,0.00,,---,0.00,VWS V14.00,2013-09-04 18:49:00,
2013-09-04 14:55:00,86.6,58.7,30.14,ESE,109,4.9,10.5,39,0.00,,---,0.00,VWS V14.00,2013-09-04 18:55:00,
2013-09-04 15:00:00,86.6,58.7,30.11,North,7,3.6,10.5,39,0.00,,---,0.00,VWS V14.00,2013-09-04 19:00:00,
2013-09-04 15:05:00,87.0,58.3,30.11,East,96,2.7,8.7,38,0.00,,---,0.00,VWS V14.00,2013-09-04 19:05:00,
2013-09-04 15:10:00,87.3,58.7,30.11,East,83,4.0,10.5,38,0.00,,---,0.00,VWS V14.00,2013-09-04 19:10:00,
2013-09-04 15:15:00,87.3,59.4,30.11,NE,51,8.1,8.1,39,0.00,,---,0.00,VWS V14.00,2013-09-04 19:15:00,
2013-09-04 15:20:00,87.7,59.0,30.11,East,93,5.8,7.6,38,0.00,,---,0.00,VWS V14.00,2013-09-04 19:20:00,
2013-09-04 15:25:00,87.5,58.8,30.11,NE,55,2.7,7.6,38,0.00,,---,0.00,VWS V14.00,2013-09-04 19:25:00,
2013-09-04 15:30:00,87.7,59.0,30.11,ENE,70,2.7,2.7,38,0.00,,---,0.00,VWS V14.00,2013-09-04 19:30:00,
2013-09-04 15:35:00,87.7,59.7,30.11,ESE,103,2.7,5.8,39,0.00,,---,0.00,VWS V14.00,2013-09-04 19:35:00,
2013-09-04 15:40:00,87.5,58.8,30.11,NE,41,11.0,11.0,38,0.00,,---,0.00,VWS V14.00,2013-09-04 19:40:00,
2013-09-04 15:45:00,87.2,59.2,30.11,North,9,5.4,11.0,39,0.00,,---,0.00,VWS V14.00,2013-09-04 19:45:00,
2013-09-04 15:50:00,87.5,59.5,30.11,NNE,33,3.6,5.8,39,0.00,,---,0.00,VWS V14.00,2013-09-04 19:50:00,
2013-09-04 15:55:00,88.1,60.0,30.11,ENE,67,5.4,8.7,39,0.00,,---,0.00,VWS V14.00,2013-09-04 19:55:00,
2013-09-04 16:00:00,88.1,60.0,30.11,NE,56,2.7,6.3,39,0.00,,---,0.00,VWS V14.00,2013-09-04 20:00:00,
2013-09-04 16:05:00,88.2,60.2,30.11,South,178,2.7,6.3,39,0.00,,---,0.00,VWS V14.00,2013-09-04 20:05:00,
2013-09-04 16:10:00,88.4,60.3,30.11,ESE,112,3.1,5.4,39,0.00,,---,0.00,VWS V14.00,2013-09-04 20:10:00,
2013-09-04 16:15:00,88.4,60.3,30.11,NE,49,5.8,5.8,39,0.00,,---,0.00,VWS V14.00,2013-09-04 20:15:00,
2013-09-04 16:21:00,88.6,59.8,30.11,NE,48,8.3,8.3,38,0.00,,---,0.00,VWS V14.00,2013-09-04 20:21:00,
2013-09-04 16:26:00,88.8,59.9,30.11,NE,36,10.5,11.9,38,0.00,,---,0.00,VWS V14.00,2013-09-04 20:26:00,
2013-09-04 16:31:00,88.6,59.8,30.11,NNE,32,0.0,8.1,38,0.00,,---,0.00,VWS V14.00,2013-09-04 20:31:00,
2013-09-04 16:36:00,89.0,60.1,30.11,NNE,18,8.1,10.1,38,0.00,,---,0.00,VWS V14.00,2013-09-04 20:36:00,
2013-09-04 16:41:00,89.0,60.1,30.11,ESE,104,4.5,8.1,38,0.00,,---,0.00,VWS V14.00,2013-09-04 20:41:00,
2013-09-04 16:46:00,89.0,60.1,30.09,NE,37,3.6,8.1,38,0.00,,---,0.00,VWS V14.00,2013-09-04 20:46:00,
2013-09-04 16:51:00,89.3,60.4,30.09,ENE,59,6.3,7.6,38,0.00,,---,0.00,VWS V14.00,2013-09-04 20:51:00,
2013-09-04 16:56:00,89.1,60.2,30.09,NE,51,4.5,8.7,38,0.00,,---,0.00,VWS V14.00,2013-09-04 20:56:00,
2013-09-04 17:01:00,89.0,60.1,30.09,SSE,161,5.4,7.6,38,0.00,,---,0.00,VWS V14.00,2013-09-04 21:01:00,
2013-09-04 17:06:00,89.0,60.1,30.09,ESE,118,2.7,7.6,38,0.00,,---,0.00,VWS V14.00,2013-09-04 21:06:00,
2013-09-04 17:11:00,89.0,60.1,30.09,NE,36,11.0,11.0,38,0.00,,---,0.00,VWS V14.00,2013-09-04 21:11:00,
2013-09-04 17:16:00,89.1,60.2,30.09,NE,45,8.1,11.0,38,0.00,,---,0.00,VWS V14.00,2013-09-04 21:16:00,
2013-09-04 17:21:00,89.1,60.2,30.09,NE,47,8.7,8.7,38,0.00,,---,0.00,VWS V14.00,2013-09-04 21:21:00,
2013-09-04 17:26:00,89.0,60.1,30.09,ENE,68,3.6,8.7,38,0.00,,---,0.00,VWS V14.00,2013-09-04 21:26:00,
2013-09-04 17:31:00,89.0,60.1,30.09,ENE,72,5.4,5.4,38,0.00,,---,0.00,VWS V14.00,2013-09-04 21:31:00,
2013-09-04 17:36:00,88.8,59.9,30.09,ESE,115,4.0,8.7,38,0.00,,---,0.00,VWS V14.00,2013-09-04 21:36:00,
2013-09-04 17:41:00,89.0,60.1,30.09,NE,55,6.7,7.6,38,0.00,,---,0.00,VWS V14.00,2013-09-04 21:41:00,
2013-09-04 17:47:00,89.1,60.2,30.09,NE,42,5.8,8.3,38,0.00,,---,0.00,VWS V14.00,2013-09-04 21:47:00,
2013-09-04 17:52:00,89.0,60.1,30.09,NE,43,8.3,8.3,38,0.00,,---,0.00,VWS V14.00,2013-09-04 21:52:00,
2013-09-04 17:57:00,88.8,59.9,30.09,ENE,64,4.0,10.5,38,0.00,,---,0.00,VWS V14.00,2013-09-04 21:57:00,
2013-09-04 18:02:00,88.6,59.8,30.09,NE,38,5.8,8.3,38,0.00,,---,0.00,VWS V14.00,2013-09-04 22:02:00,
2013-09-04 18:07:00,88.6,59.8,30.09,NE,34,3.1,8.3,38,0.00,,---,0.00,VWS V14.00,2013-09-04 22:07:00,
2013-09-04 18:12:00,88.6,59.8,30.09,NE,44,8.7,9.6,38,0.00,,---,0.00,VWS V14.00,2013-09-04 22:12:00,
2013-09-04 18:17:00,88.2,59.5,30.09,NE,49,5.8,9.6,38,0.00,,---,0.00,VWS V14.00,2013-09-04 22:17:00,
2013-09-04 18:22:00,87.9,59.1,30.09,ENE,63,6.3,8.7,38,0.00,,---,0.00,VWS V14.00,2013-09-04 22:22:00,
2013-09-04 18:27:00,87.5,59.5,30.09,East,91,2.7,8.7,39,0.00,,---,0.00,VWS V14.00,2013-09-04 22:27:00,
2013-09-04 18:32:00,87.5,59.5,30.09,East,96,3.6,5.8,39,0.00,,---,0.00,VWS V14.00,2013-09-04 22:32:00,
2013-09-04 18:37:00,87.3,59.4,30.09,NE,55,6.3,8.3,39,0.00,,---,0.00,VWS V14.00,2013-09-04 22:37:00,
2013-09-04 18:42:00,87.3,59.4,30.09,ENE,73,3.1,5.4,39,0.00,,---,0.00,VWS V14.00,2013-09-04 22:42:00,
2013-09-04 18:47:00,87.3,59.4,30.09,NE,44,5.8,6.7,39,0.00,,---,0.00,VWS V14.00,2013-09-04 22:47:00,
2013-09-04 18:52:00,87.0,59.1,30.09,ENE,61,4.0,5.8,39,0.00,,---,0.00,VWS V14.00,2013-09-04 22:52:00,
2013-09-04 18:57:00,86.8,58.9,30.09,ENE,70,3.6,8.1,39,0.00,,---,0.00,VWS V14.00,2013-09-04 22:57:00,
2013-09-04 19:02:00,86.8,58.9,30.09,NE,37,6.3,6.3,39,0.00,,---,0.00,VWS V14.00,2013-09-04 23:02:00,
2013-09-04 19:07:00,86.4,59.3,30.09,NE,41,7.2,10.1,40,0.00,,---,0.00,VWS V14.00,2013-09-04 23:07:00,
2013-09-04 19:13:00,86.1,59.0,30.09,ESE,122,3.6,5.4,40,0.00,,---,0.00,VWS V14.00,2013-09-04 23:13:00,
2013-09-04 19:18:00,85.7,58.6,30.09,ESE,114,5.4,5.8,40,0.00,,---,0.00,VWS V14.00,2013-09-04 23:18:00,
2013-09-04 19:23:00,85.4,59.0,30.09,East,89,2.7,5.4,41,0.00,,---,0.00,VWS V14.00,2013-09-04 23:23:00,
2013-09-04 19:28:00,85.2,58.8,30.09,ESE,114,4.9,5.4,41,0.00,,---,0.00,VWS V14.00,2013-09-04 23:28:00,
2013-09-04 19:33:00,84.8,59.2,30.09,ENE,73,3.1,4.9,42,0.00,,---,0.00,VWS V14.00,2013-09-04 23:33:00,
2013-09-04 19:38:00,83.9,59.0,30.09,ESE,109,3.1,5.4,43,0.00,,---,0.00,VWS V14.00,2013-09-04 23:38:00,
2013-09-04 19:43:00,83.0,58.9,30.09,SSE,153,2.2,4.0,44,0.00,,---,0.00,VWS V14.00,2013-09-04 23:43:00,
2013-09-04 19:48:00,82.3,58.9,30.09,East,98,2.7,5.8,45,0.00,,---,0.00,VWS V14.00,2013-09-04 23:48:00,
2013-09-04 19:53:00,81.9,59.2,30.09,NE,50,3.1,5.8,46,0.00,,---,0.00,VWS V14.00,2013-09-04 23:53:00,
2013-09-04 19:58:00,81.6,59.4,30.09,NE,42,3.1,5.8,47,0.00,,---,0.00,VWS V14.00,2013-09-04 23:58:00,
2013-09-04 20:03:00,81.0,60.1,30.09,ENE,62,5.4,5.4,49,0.00,,---,0.00,VWS V14.00,2013-09-05 00:03:00,
2013-09-04 20:08:00,80.9,59.9,30.09,NE,35,3.1,6.3,49,0.00,,---,0.00,VWS V14.00,2013-09-05 00:08:00,
2013-09-04 20:13:00,80.5,59.6,30.09,NE,52,3.6,4.0,49,0.00,,---,0.00,VWS V14.00,2013-09-05 00:13:00,
2013-09-04 20:19:00,80.1,59.8,30.09,ENE,76,3.6,4.0,50,0.00,,---,0.00,VWS V14.00,2013-09-05 00:19:00,
2013-09-04 20:24:00,79.6,59.3,30.09,NE,37,4.0,4.0,50,0.00,,---,0.00,VWS V14.00,2013-09-05 00:24:00,
2013-09-04 20:29:00,79.4,59.7,30.09,NNE,32,3.1,5.4,51,0.00,,---,0.00,VWS V14.00,2013-09-05 00:29:00,
2013-09-04 20:34:00,79.1,59.4,30.09,ENE,58,3.1,3.6,51,0.00,,---,0.00,VWS V14.00,2013-09-05 00:34:00,
2013-09-04 20:39:00,78.7,59.1,30.09,NE,42,2.7,4.0,51,0.00,,---,0.00,VWS V14.00,2013-09-05 00:39:00,
2013-09-04 20:44:00,78.3,59.3,30.09,NE,36,0.0,4.0,52,0.00,,---,0.00,VWS V14.00,2013-09-05 00:44:00,
2013-09-04 20:49:00,77.8,58.8,30.09,NE,36,0.0,4.0,52,0.00,,---,0.00,VWS V14.00,2013-09-05 00:49:00,
2013-09-04 20:54:00,77.3,58.8,30.09,NE,42,0.0,0.0,53,0.00,,---,0.00,VWS V14.00,2013-09-05 00:54:00,
2013-09-04 20:59:00,76.9,59.0,30.09,NNE,27,0.0,0.0,54,0.00,,---,0.00,VWS V14.00,2013-09-05 00:59:00,
2013-09-04 21:04:00,76.4,58.5,30.09,NNE,21,0.0,0.0,54,0.00,,---,0.00,VWS V14.00,2013-09-05 01:04:00,
2013-09-04 21:10:00,76.0,58.7,30.09,NNE,21,0.0,0.0,55,0.00,,---,0.00,VWS V14.00,2013-09-05 01:10:00,
2013-09-04 21:15:00,75.6,58.8,30.11,NNE,21,0.0,0.0,56,0.00,,---,0.00,VWS V14.00,2013-09-05 01:15:00,
2013-09-04 21:20:00,75.3,59.0,30.11,NNE,21,0.0,0.0,57,0.00,,---,0.00,VWS V14.00,2013-09-05 01:20:00,
2013-09-04 21:25:00,74.7,59.5,30.11,NNE,21,0.0,0.0,59,0.00,,---,0.00,VWS V14.00,2013-09-05 01:25:00,
2013-09-04 21:30:00,74.6,60.2,30.11,NNE,21,0.0,0.0,61,0.00,,---,0.00,VWS V14.00,2013-09-05 01:30:00,
2013-09-04 21:35:00,74.0,60.2,30.11,NNE,19,0.0,0.0,62,0.00,,---,0.00,VWS V14.00,2013-09-05 01:35:00,
2013-09-04 21:40:00,73.8,60.0,30.11,NNE,23,2.7,2.7,62,0.00,,---,0.00,VWS V14.00,2013-09-05 01:40:00,
2013-09-04 21:45:00,73.5,60.1,30.11,NNE,27,3.1,3.1,63,0.00,,---,0.00,VWS V14.00,2013-09-05 01:45:00,
2013-09-04 21:50:00,73.3,60.0,30.11,NNE,27,0.0,0.0,63,0.00,,---,0.00,VWS V14.00,2013-09-05 01:50:00,
2013-09-04 21:55:00,73.1,60.2,30.11,NNE,27,0.0,0.0,64,0.00,,---,0.00,VWS V14.00,2013-09-05 01:55:00,
2013-09-04 22:01:00,72.8,60.3,30.11,NNE,27,0.0,0.0,65,0.00,,---,0.00,VWS V14.00,2013-09-05 02:01:00,
2013-09-04 22:06:00,72.6,60.2,30.11,NNE,27,0.0,0.0,65,0.00,,---,0.00,VWS V14.00,2013-09-05 02:06:00,
2013-09-04 22:11:00,72.4,60.4,30.11,NNE,29,2.2,2.7,66,0.00,,---,0.00,VWS V14.00,2013-09-05 02:11:00,
2013-09-04 22:16:00,72.0,60.9,30.11,NNE,29,0.0,3.1,68,0.00,,---,0.00,VWS V14.00,2013-09-05 02:16:00,
2013-09-04 22:21:00,71.7,61.0,30.11,NNE,29,0.0,0.0,69,0.00,,---,0.00,VWS V14.00,2013-09-05 02:21:00,
2013-09-04 22:26:00,71.5,60.8,30.11,NNE,29,0.0,0.0,69,0.00,,---,0.00,VWS V14.00,2013-09-05 02:26:00,
2013-09-04 22:31:00,71.1,60.9,30.11,NNE,29,0.0,0.0,70,0.00,,---,0.00,VWS V14.00,2013-09-05 02:31:00,
2013-09-04 22:36:00,71.0,61.5,30.11,NNE,29,0.0,0.0,72,0.00,,---,0.00,VWS V14.00,2013-09-05 02:36:00,
2013-09-04 22:41:00,70.6,61.5,30.11,NNE,25,0.0,0.0,73,0.00,,---,0.00,VWS V14.00,2013-09-05 02:41:00,
2013-09-04 22:46:00,70.6,61.5,30.11,NNE,18,0.0,0.0,73,0.00,,---,0.00,VWS V14.00,2013-09-05 02:46:00,
2013-09-04 22:52:00,70.4,61.4,30.11,NNE,21,0.0,0.0,73,0.00,,---,0.00,VWS V14.00,2013-09-05 02:52:00,
2013-09-04 22:57:00,70.6,61.1,30.11,NNE,19,2.7,3.1,72,0.00,,---,0.00,VWS V14.00,2013-09-05 02:57:00,
2013-09-04 23:02:00,70.4,60.6,30.11,NNE,16,2.7,2.7,71,0.00,,---,0.00,VWS V14.00,2013-09-05 03:02:00,
2013-09-04 23:07:00,70.4,60.2,30.11,NNE,16,0.0,2.7,70,0.00,,---,0.00,VWS V14.00,2013-09-05 03:07:00,
2013-09-04 23:12:00,70.4,60.2,30.14,NNE,16,2.7,3.1,70,0.00,,---,0.00,VWS V14.00,2013-09-05 03:12:00,
2013-09-04 23:17:00,70.4,60.2,30.14,NNE,29,2.7,3.6,70,0.00,,---,0.00,VWS V14.00,2013-09-05 03:17:00,
2013-09-04 23:22:00,70.2,60.4,30.14,NE,35,2.7,4.0,71,0.00,,---,0.00,VWS V14.00,2013-09-05 03:22:00,
2013-09-04 23:27:00,70.2,60.4,30.14,NNE,32,4.0,4.9,71,0.00,,---,0.00,VWS V14.00,2013-09-05 03:27:00,
2013-09-04 23:33:00,70.2,60.4,30.14,NE,51,3.6,4.0,71,0.00,,---,0.00,VWS V14.00,2013-09-05 03:33:00,
2013-09-04 23:38:00,70.4,60.2,30.14,NNE,31,3.1,4.0,70,0.00,,---,0.00,VWS V14.00,2013-09-05 03:38:00,
2013-09-04 23:43:00,70.4,59.8,30.14,NE,35,3.6,4.0,69,0.00,,---,0.00,VWS V14.00,2013-09-05 03:43:00,
2013-09-04 23:48:00,70.4,60.2,30.14,NNE,29,4.0,4.0,70,0.00,,---,0.00,VWS V14.00,2013-09-05 03:48:00,
2013-09-04 23:53:00,70.2,60.0,30.14,NNE,29,3.6,4.0,70,0.00,,---,0.00,VWS V14.00,2013-09-05 03:53:00,
2013-09-04 23:58:00,70.1,59.8,30.14,NE,39,5.8,5.8,70,0.00,,---,0.00,VWS V14.00,2013-09-05 03:58:00,